Location: Coed Ely
(51.5661°N, 3.4150°W)
Time: 01:25:20
(UTC+00:00)

ISS - Pass Details

Date: 28 January 2021
Orbit: 417 x 422 km, 51.6° (Epoch: 28 February)

Event Time Altitude Azimuth Distance (km) Brightness Sun altitude
Rises 17:45:04 0° 260° (W) 2,370 2.2 -7.8°
Reaches altitude 10° 17:47:10 10° 260° (W) 1,507 0.7 -8.1°
Maximum altitude 17:50:33 87° 175° (S) 428 -3.7 -8.6°
Enters shadow 17:53:37 12° 83° (E) 1,372 -1.8 -9.0°
